This is the latest recevied weather packets stored in our database for station/object N4MGC. If no packets are shown the sender has not sent any weather packets the latest 10 day(s).
| Time | Temp. | Humidity | Pressure | Rain* | Wind** | Luminosity | Snow |
|---|---|---|---|---|---|---|---|
| 1777647419 | 13.89° C | 88% | 1015.6 hPa | 0 mm | - | 90 W/m² | - |
| 1777647117 | 13.33° C | 88% | 1016.1 hPa | 0 mm | - | 90 W/m² | - |
| 1777646813 | 13.33° C | 89% | 1015.8 hPa | 0 mm | - | 89 W/m² | - |
| 1777646508 | 13.33° C | 88% | 1015.8 hPa | 0 mm | - | 81 W/m² | - |
| 1777646205 | 13.33° C | 88% | 1015.6 hPa | 0 mm | - | 78 W/m² | - |
| 1777645903 | 13.33° C | 87% | 1015.6 hPa | 0 mm | - | 68 W/m² | - |
| 1777645599 | 13.33° C | 89% | 1015.6 hPa | 0 mm | - | 72 W/m² | - |
| 1777645295 | 12.78° C | 89% | 1015.4 hPa | 0 mm | - | 76 W/m² | - |
| 1777644991 | 12.78° C | 89% | 1015.3 hPa | 0 mm | - | 74 W/m² | - |
| 1777644689 | 12.78° C | 89% | 1015.2 hPa | 0 mm | - | 74 W/m² | - |
| 1777644385 | 12.78° C | 90% | 1015.4 hPa | 0 mm | - | 67 W/m² | - |
| 1777644082 | 12.78° C | 91% | 1015.2 hPa | 0 mm | - | 66 W/m² | - |
| 1777643778 | 12.78° C | 91% | 1015.4 hPa | 0 mm | - | 62 W/m² | - |
| 1777643476 | 12.78° C | 91% | 1015.2 hPa | 0 mm | - | 58 W/m² | - |
| 1777643172 | 12.22° C | 92% | 1015.4 hPa | 0 mm | - | 58 W/m² | - |
| 1777642869 | 12.22° C | 93% | 1015.2 hPa | 0 mm | - | 55 W/m² | - |
| 1777642566 | 12.22° C | 93% | 1015.1 hPa | 0 mm | - | 52 W/m² | - |
| 1777642262 | 12.22° C | 93% | 1015.4 hPa | 0 mm | - | 41 W/m² | - |
| 1777641960 | 12.22° C | 94% | 1015.1 hPa | 0 mm | - | 40 W/m² | - |
| 1777641655 | 12.22° C | 94% | 1015 hPa | 0 mm | - | 42 W/m² | - |
| 1777641350 | 12.22° C | 93% | 1014.9 hPa | 0 mm | - | 40 W/m² | - |
| 1777641046 | 12.22° C | 94% | 1014.8 hPa | 0 mm | - | 36 W/m² | - |
| 1777640742 | 12.22° C | 94% | 1014.8 hPa | 0 mm | - | 50 W/m² | - |
| 1777640439 | 12.22° C | 94% | 1014.7 hPa | 0 mm | - | 62 W/m² | - |
| 1777640136 | 11.67° C | 95% | 1014.7 hPa | 0 mm | - | 73 W/m² | - |
* Rain latest hour (hover to see other rain measurements)
** Current wind speed in m/s (hover to see current wind gust speed)